ROU1945 CYYZ-CYZF

Flight info

Callsign ROU1945
Flight time N/A
Altitude 34000
Route IKLEN3 TONNY DCT BACMO DCT 5230N09000W/N0452F360 55N094W 58N100W 60N105W
Aircraft A320/M-SDE3FGHIRWY/LB1

Departure

Time 2026-05-06 12:46
Airport Toronto Pearson International Airport (CYYZ)

Arrival

Time N/A
Airport Yellowknife International Airport (CYZF)
Time Latitude Longitude Altitude Speed Heading
2026-05-06 12:29 43.68260 -79.61660 561 ft 0 kts 47°
2026-05-06 12:32 43.68248 -79.61676 565 ft 2 kts 47°
2026-05-06 12:33 43.68237 -79.61692 564 ft 2 kts 47°
2026-05-06 12:33 43.68226 -79.61709 569 ft 2 kts 47°
2026-05-06 12:33 43.68215 -79.61725 571 ft 2 kts 64°
2026-05-06 12:33 43.68215 -79.61745 571 ft 2 kts 173°
2026-05-06 12:34 43.68227 -79.61746 567 ft 0 kts 174°
2026-05-06 12:36 43.68223 -79.61745 569 ft 3 kts 174°
2026-05-06 12:36 43.68182 -79.61738 567 ft 9 kts 172°
2026-05-06 12:37 43.68105 -79.61755 563 ft 14 kts 217°
2026-05-06 12:37 43.68047 -79.61844 566 ft 10 kts 227°
2026-05-06 12:37 43.68011 -79.61898 567 ft 5 kts 227°
2026-05-06 12:37 43.67994 -79.61938 564 ft 5 kts 250°
2026-05-06 12:38 43.67985 -79.61983 565 ft 5 kts 251°
2026-05-06 12:38 43.67968 -79.62026 564 ft 7 kts 236°
2026-05-06 12:38 43.67909 -79.62062 564 ft 11 kts 173°
2026-05-06 12:38 43.67849 -79.62010 562 ft 10 kts 136°
2026-05-06 12:39 43.67801 -79.61945 563 ft 9 kts 136°
2026-05-06 12:39 43.67753 -79.61881 563 ft 10 kts 136°
2026-05-06 12:39 43.67704 -79.61816 563 ft 10 kts 136°
2026-05-06 12:39 43.67655 -79.61751 563 ft 10 kts 137°
2026-05-06 12:40 43.67604 -79.61699 566 ft 9 kts 126°
2026-05-06 12:40 43.67561 -79.61632 567 ft 10 kts 137°
2026-05-06 12:40 43.67509 -79.61565 569 ft 11 kts 137°
2026-05-06 12:40 43.67452 -79.61490 562 ft 12 kts 136°
2026-05-06 12:41 43.67389 -79.61408 562 ft 13 kts 136°
2026-05-06 12:41 43.67312 -79.61353 567 ft 11 kts 187°
2026-05-06 12:41 43.67242 -79.61350 569 ft 10 kts 156°
2026-05-06 12:41 43.67184 -79.61351 568 ft 8 kts 224°
2026-05-06 12:42 43.67138 -79.61418 571 ft 13 kts 225°
2026-05-06 12:42 43.67056 -79.61519 569 ft 19 kts 221°
2026-05-06 12:42 43.66945 -79.61661 569 ft 23 kts 223°
2026-05-06 12:42 43.66824 -79.61811 570 ft 24 kts 222°
2026-05-06 12:43 43.66700 -79.61968 569 ft 25 kts 222°
2026-05-06 12:43 43.66570 -79.62132 571 ft 26 kts 223°
2026-05-06 12:43 43.66440 -79.62295 567 ft 24 kts 222°
2026-05-06 12:43 43.66358 -79.62399 564 ft 23 kts 222°
2026-05-06 12:44 43.66238 -79.62499 561 ft 18 kts 166°
2026-05-06 12:44 43.66151 -79.62403 560 ft 13 kts 136°
2026-05-06 12:44 43.66114 -79.62330 568 ft 6 kts 66°
2026-05-06 12:44 43.66125 -79.62310 564 ft 0 kts 46°
2026-05-06 12:45 43.66129 -79.62303 567 ft 6 kts 46°
2026-05-06 12:45 43.66303 -79.62050 570 ft 71 kts 46°
2026-05-06 12:45 43.67569 -79.60218 674 ft 165 kts 50°
2026-05-06 12:46 43.68391 -79.59044 1333 ft 166 kts 49°
2026-05-06 12:46 43.69239 -79.57837 1986 ft 172 kts 49°
2026-05-06 12:46 43.70078 -79.56642 2497 ft 182 kts 48°
2026-05-06 12:46 43.71020 -79.55286 2645 ft 208 kts 47°
2026-05-06 12:47 43.72066 -79.53775 2932 ft 227 kts 46°
2026-05-06 12:47 43.73257 -79.52076 3191 ft 254 kts 46°
2026-05-06 12:47 43.74531 -79.50260 3805 ft 266 kts 46°
2026-05-06 12:47 43.76040 -79.48670 4661 ft 268 kts 23°
2026-05-06 12:48 43.77840 -79.48085 5444 ft 267 kts 357°
2026-05-06 12:48 43.79639 -79.48622 6276 ft 267 kts 332°
2026-05-06 12:48 43.81195 -79.50016 7052 ft 267 kts 322°
2026-05-06 12:48 43.82737 -79.51526 7808 ft 269 kts 321°
2026-05-06 12:49 43.84273 -79.53030 8540 ft 272 kts 320°
2026-05-06 12:49 43.85826 -79.54545 9276 ft 274 kts 319°
2026-05-06 12:49 43.87421 -79.56098 9981 ft 277 kts 319°
2026-05-06 12:49 43.89037 -79.57672 10286 ft 295 kts 320°
2026-05-06 12:50 43.90903 -79.59152 10416 ft 323 kts 329°
2026-05-06 12:50 43.93034 -79.60439 10541 ft 345 kts 330°
2026-05-06 12:50 43.95294 -79.61806 10765 ft 361 kts 331°
2026-05-06 12:50 43.97620 -79.63208 11282 ft 367 kts 331°
2026-05-06 12:51 43.99973 -79.64627 11851 ft 371 kts 330°
2026-05-06 12:51 44.02356 -79.66062 12404 ft 376 kts 330°
2026-05-06 12:51 44.04767 -79.67510 12964 ft 380 kts 332°
2026-05-06 12:51 44.07333 -79.68614 13507 ft 391 kts 340°
2026-05-06 12:52 44.09995 -79.69492 14030 ft 396 kts 340°
2026-05-06 12:52 44.12688 -79.70381 14553 ft 399 kts 340°
2026-05-06 12:52 44.15398 -79.71277 15101 ft 402 kts 340°
2026-05-06 12:52 44.18072 -79.72495 15603 ft 397 kts 329°
2026-05-06 12:53 44.20481 -79.74320 16111 ft 392 kts 319°
2026-05-06 12:53 44.22679 -79.76563 16624 ft 392 kts 316°
2026-05-06 12:53 44.24872 -79.78840 17146 ft 395 kts 316°
2026-05-06 12:53 44.27087 -79.81135 17778 ft 397 kts 316°
2026-05-06 12:54 44.29308 -79.83432 18310 ft 399 kts 316°
2026-05-06 12:54 44.31551 -79.85750 18757 ft 402 kts 316°
2026-05-06 12:54 44.33796 -79.88077 19193 ft 403 kts 316°
2026-05-06 12:54 44.36056 -79.90422 19620 ft 405 kts 316°
2026-05-06 12:55 44.37551 -79.91976 19896 ft 406 kts 316°
2026-05-06 12:55 44.39828 -79.94336 20307 ft 408 kts 316°
2026-05-06 12:55 44.42114 -79.96703 20708 ft 410 kts 316°
2026-05-06 12:55 44.44403 -79.99081 21098 ft 411 kts 316°
2026-05-06 12:56 44.46701 -80.01475 21486 ft 413 kts 315°
2026-05-06 12:56 44.49009 -80.03887 21852 ft 414 kts 315°
2026-05-06 12:56 44.51323 -80.06308 22213 ft 416 kts 315°
2026-05-06 12:56 44.53682 -80.08772 22576 ft 418 kts 315°
2026-05-06 12:57 44.56013 -80.11209 22919 ft 419 kts 315°
2026-05-06 12:57 44.58359 -80.13665 23283 ft 421 kts 315°
2026-05-06 12:57 44.60709 -80.16129 23612 ft 423 kts 315°
2026-05-06 12:57 44.63071 -80.18606 23896 ft 424 kts 315°
2026-05-06 12:58 44.65437 -80.21093 24165 ft 426 kts 315°
2026-05-06 12:58 44.67812 -80.23588 24423 ft 427 kts 315°
2026-05-06 12:58 44.70197 -80.26094 24674 ft 429 kts 315°
2026-05-06 12:58 44.72588 -80.28611 24921 ft 430 kts 315°
2026-05-06 12:59 44.74987 -80.31148 25149 ft 432 kts 315°
2026-05-06 12:59 44.77392 -80.33694 25368 ft 434 kts 315°
2026-05-06 12:59 44.79810 -80.36256 25623 ft 435 kts 315°
2026-05-06 12:59 44.82236 -80.38822 25845 ft 437 kts 315°
2026-05-06 13:00 44.84665 -80.41395 26055 ft 438 kts 315°
2026-05-06 13:00 44.87107 -80.43985 26258 ft 440 kts 315°
2026-05-06 13:00 44.89550 -80.46576 26493 ft 440 kts 315°
2026-05-06 13:00 44.92002 -80.49181 26699 ft 441 kts 315°
2026-05-06 13:01 44.94457 -80.51790 26891 ft 443 kts 315°
2026-05-06 13:01 44.96921 -80.54413 27060 ft 444 kts 315°
2026-05-06 13:01 44.99388 -80.57044 27249 ft 444 kts 315°
2026-05-06 13:01 45.01850 -80.59670 27549 ft 443 kts 315°
2026-05-06 13:02 45.04311 -80.62296 27793 ft 443 kts 315°
2026-05-06 13:02 45.06765 -80.64921 28057 ft 442 kts 315°
2026-05-06 13:02 45.09218 -80.67545 28304 ft 442 kts 315°
2026-05-06 13:02 45.11670 -80.70173 28546 ft 442 kts 315°
2026-05-06 13:03 45.14118 -80.72804 28792 ft 441 kts 315°
2026-05-06 13:03 45.16591 -80.75469 29078 ft 441 kts 314°
2026-05-06 13:03 45.19031 -80.78101 29327 ft 441 kts 314°
2026-05-06 13:03 45.21473 -80.80732 29598 ft 440 kts 314°
2026-05-06 13:04 45.23914 -80.83360 29867 ft 440 kts 314°
2026-05-06 13:04 45.26351 -80.85981 30104 ft 439 kts 314°
2026-05-06 13:04 45.28782 -80.88604 30321 ft 439 kts 314°
2026-05-06 13:04 45.31209 -80.91230 30525 ft 439 kts 314°
2026-05-06 13:05 45.33638 -80.93862 30726 ft 439 kts 314°
2026-05-06 13:05 45.36061 -80.96494 30932 ft 438 kts 313°
2026-05-06 13:05 45.38479 -80.99127 31141 ft 438 kts 313°
2026-05-06 13:05 45.40901 -81.01763 31340 ft 438 kts 313°
2026-05-06 13:06 45.43318 -81.04392 31571 ft 438 kts 313°
2026-05-06 13:06 45.45734 -81.07019 31855 ft 436 kts 313°
2026-05-06 13:06 45.48136 -81.09635 32087 ft 435 kts 313°
2026-05-06 13:06 45.50539 -81.12254 32304 ft 434 kts 313°
2026-05-06 13:07 45.52934 -81.14873 32505 ft 434 kts 313°
2026-05-06 13:07 45.55325 -81.17491 32707 ft 433 kts 313°
2026-05-06 13:07 45.57715 -81.20113 32900 ft 433 kts 313°
2026-05-06 13:07 45.60103 -81.22734 33087 ft 433 kts 313°
2026-05-06 13:08 45.62495 -81.25361 33282 ft 433 kts 313°
2026-05-06 13:08 45.64880 -81.27978 33524 ft 433 kts 312°
2026-05-06 13:08 45.67265 -81.30600 33721 ft 432 kts 312°
2026-05-06 13:08 45.69646 -81.33223 33919 ft 432 kts 312°
2026-05-06 13:09 45.72022 -81.35841 34073 ft 432 kts 312°
2026-05-06 13:09 45.76793 -81.41114 34071 ft 433 kts 312°
2026-05-06 13:10 45.81603 -81.46434 34075 ft 434 kts 312°
2026-05-06 13:10 45.86376 -81.51720 34084 ft 434 kts 312°
2026-05-06 13:11 45.91141 -81.57029 34068 ft 434 kts 311°
2026-05-06 13:11 45.95908 -81.62337 34068 ft 434 kts 312°
2026-05-06 13:12 46.00673 -81.67650 34062 ft 433 kts 311°
2026-05-06 13:12 46.05434 -81.72981 34064 ft 433 kts 311°
2026-05-06 13:13 46.10186 -81.78319 34086 ft 433 kts 311°
2026-05-06 13:13 46.14935 -81.83657 34070 ft 433 kts 311°
2026-05-06 13:14 46.19682 -81.89000 34069 ft 433 kts 311°
2026-05-06 13:14 46.24420 -81.94358 34060 ft 432 kts 311°
2026-05-06 13:15 46.29155 -81.99711 34122 ft 432 kts 311°
2026-05-06 13:15 46.33907 -82.05085 34064 ft 429 kts 311°
2026-05-06 13:16 46.38596 -82.10428 34052 ft 429 kts 311°
2026-05-06 13:16 46.43280 -82.15786 34051 ft 429 kts 311°
2026-05-06 13:17 46.47974 -82.21140 34044 ft 429 kts 311°
2026-05-06 13:17 46.52658 -82.26506 34049 ft 429 kts 311°
2026-05-06 13:18 46.57344 -82.31882 34063 ft 429 kts 311°
2026-05-06 13:18 46.62030 -82.37263 34051 ft 430 kts 311°
2026-05-06 13:19 46.66721 -82.42659 34051 ft 430 kts 311°
2026-05-06 13:19 46.71403 -82.48064 34047 ft 430 kts 311°
2026-05-06 13:20 46.76088 -82.53493 34057 ft 430 kts 311°
2026-05-06 13:20 46.80802 -82.58971 34050 ft 430 kts 311°
2026-05-06 13:21 46.85548 -82.64496 34076 ft 430 kts 311°
2026-05-06 13:21 46.90235 -82.69960 34056 ft 431 kts 312°
2026-05-06 13:22 46.94934 -82.75432 34046 ft 432 kts 312°
2026-05-06 13:22 46.99636 -82.80935 34049 ft 433 kts 313°
2026-05-06 13:23 47.04339 -82.86461 34040 ft 433 kts 313°
2026-05-06 13:23 47.09043 -82.91996 34035 ft 434 kts 313°
2026-05-06 13:24 47.13753 -82.97549 34036 ft 434 kts 313°
2026-05-06 13:24 47.17701 -83.02215 34073 ft 435 kts 314°
2026-05-06 13:25 47.22412 -83.07803 34056 ft 435 kts 314°
2026-05-06 13:25 47.27124 -83.13408 34041 ft 436 kts 314°
2026-05-06 13:26 47.31849 -83.19028 34040 ft 436 kts 314°
2026-05-06 13:26 47.36573 -83.24659 34036 ft 437 kts 314°
2026-05-06 13:27 47.41295 -83.30300 34054 ft 437 kts 314°
2026-05-06 13:27 47.46015 -83.35961 34059 ft 438 kts 314°
2026-05-06 13:28 47.50746 -83.41641 34050 ft 438 kts 314°
2026-05-06 13:28 47.55508 -83.47377 34034 ft 439 kts 314°
2026-05-06 13:29 47.60233 -83.53093 34031 ft 439 kts 314°
2026-05-06 13:29 47.64965 -83.58819 34038 ft 439 kts 315°
2026-05-06 13:30 47.69699 -83.64563 34036 ft 440 kts 314°
2026-05-06 13:30 47.74432 -83.70329 34043 ft 440 kts 315°
2026-05-06 13:31 47.79174 -83.76099 34038 ft 441 kts 315°
2026-05-06 13:31 47.83914 -83.81886 34035 ft 441 kts 315°
2026-05-06 13:32 47.88647 -83.87702 34056 ft 441 kts 315°
2026-05-06 13:32 47.93388 -83.93518 34047 ft 442 kts 315°
2026-05-06 13:33 47.98130 -83.99362 34040 ft 442 kts 315°
2026-05-06 13:33 48.02897 -84.05171 34046 ft 443 kts 316°
2026-05-06 13:34 48.07759 -84.10842 34060 ft 444 kts 317°
2026-05-06 13:34 48.12640 -84.16505 34043 ft 444 kts 317°
2026-05-06 13:35 48.17531 -84.22258 34037 ft 444 kts 317°
2026-05-06 13:35 48.22370 -84.28011 34031 ft 444 kts 317°
2026-05-06 13:36 48.27207 -84.33779 34025 ft 444 kts 317°
2026-05-06 13:36 48.32056 -84.39543 34043 ft 445 kts 317°
2026-05-06 13:37 48.36911 -84.45322 34035 ft 445 kts 317°
2026-05-06 13:37 48.41768 -84.51124 34037 ft 446 kts 317°
2026-05-06 13:38 48.46622 -84.56947 34023 ft 446 kts 317°
2026-05-06 13:38 48.51472 -84.62782 34024 ft 446 kts 317°
2026-05-06 13:39 48.56320 -84.68629 34028 ft 446 kts 317°
2026-05-06 13:39 48.61174 -84.74492 34022 ft 447 kts 317°
2026-05-06 13:40 48.66028 -84.80356 34025 ft 447 kts 318°
2026-05-06 13:40 48.70884 -84.86250 34020 ft 447 kts 318°
2026-05-06 13:41 48.75732 -84.92144 34014 ft 447 kts 318°
2026-05-06 13:41 48.80611 -84.98093 34012 ft 447 kts 317°
2026-05-06 13:42 48.85449 -85.04025 34013 ft 447 kts 317°
2026-05-06 13:42 48.90293 -85.09954 34012 ft 447 kts 317°
2026-05-06 13:43 48.95129 -85.15908 34012 ft 447 kts 317°
2026-05-06 13:43 48.99962 -85.21869 34018 ft 447 kts 318°
2026-05-06 13:44 49.04792 -85.27848 34017 ft 448 kts 318°
2026-05-06 13:44 49.09625 -85.33835 34009 ft 448 kts 318°
2026-05-06 13:45 49.14464 -85.39833 34008 ft 448 kts 318°
2026-05-06 13:45 49.21736 -85.48909 34018 ft 448 kts 317°
2026-05-06 13:46 49.26559 -85.54949 34014 ft 448 kts 318°
2026-05-06 13:46 49.31393 -85.60998 34012 ft 449 kts 318°
2026-05-06 13:47 49.36230 -85.67074 34005 ft 450 kts 318°
2026-05-06 13:47 49.41064 -85.73168 34012 ft 450 kts 318°
2026-05-06 13:48 49.45900 -85.79285 34015 ft 450 kts 318°
2026-05-06 13:48 49.50733 -85.85408 34013 ft 451 kts 318°
2026-05-06 13:49 49.55570 -85.91544 34009 ft 450 kts 318°
2026-05-06 13:49 49.60397 -85.97689 34016 ft 450 kts 318°
2026-05-06 13:50 49.65226 -86.03858 34007 ft 451 kts 318°
2026-05-06 13:50 49.70054 -86.10042 34016 ft 451 kts 318°
2026-05-06 13:51 49.74904 -86.16276 34007 ft 451 kts 318°
2026-05-06 13:51 49.79731 -86.22481 34005 ft 451 kts 318°
2026-05-06 13:52 49.84551 -86.28695 34001 ft 451 kts 318°
2026-05-06 13:52 49.89371 -86.34939 34003 ft 451 kts 318°
2026-05-06 13:53 49.94189 -86.41195 33872 ft 450 kts 319°
2026-05-06 13:53 49.98988 -86.47441 33865 ft 451 kts 319°
2026-05-06 13:54 50.03798 -86.53716 33864 ft 452 kts 319°
2026-05-06 13:54 50.08610 -86.60014 33867 ft 452 kts 318°
2026-05-06 13:55 50.13420 -86.66329 33873 ft 452 kts 318°
2026-05-06 13:55 50.18233 -86.72676 33887 ft 453 kts 319°
2026-05-06 13:56 50.22265 -86.77986 33884 ft 453 kts 318°
2026-05-06 13:56 50.27077 -86.84343 33888 ft 453 kts 319°
2026-05-06 13:57 50.31882 -86.90714 33883 ft 453 kts 318°
2026-05-06 13:57 50.36688 -86.97102 33889 ft 454 kts 319°
2026-05-06 13:58 50.41498 -87.03510 33886 ft 454 kts 319°
2026-05-06 13:58 50.46302 -87.09937 33892 ft 454 kts 318°
2026-05-06 13:59 50.51105 -87.16373 33885 ft 454 kts 318°
2026-05-06 13:59 50.55901 -87.22826 33893 ft 454 kts 318°
2026-05-06 14:00 50.60697 -87.29304 33892 ft 454 kts 318°
2026-05-06 14:00 50.65524 -87.35830 33893 ft 455 kts 319°
2026-05-06 14:01 50.70320 -87.42340 33895 ft 455 kts 319°
2026-05-06 14:01 50.75116 -87.48864 33898 ft 455 kts 318°
2026-05-06 14:02 50.79916 -87.55395 33899 ft 455 kts 318°
2026-05-06 14:02 50.84710 -87.61937 33911 ft 455 kts 319°
2026-05-06 14:03 50.89506 -87.68500 33898 ft 456 kts 319°
2026-05-06 14:03 50.94297 -87.75084 33909 ft 456 kts 319°
2026-05-06 14:04 50.99087 -87.81697 33903 ft 457 kts 319°
2026-05-06 14:04 51.03876 -87.88325 33904 ft 457 kts 319°
2026-05-06 14:05 51.08665 -87.94964 33913 ft 457 kts 318°
2026-05-06 14:05 51.13450 -88.01620 33916 ft 457 kts 318°
2026-05-06 14:06 51.18236 -88.08287 33916 ft 457 kts 318°
2026-05-06 14:06 51.23048 -88.15022 33920 ft 457 kts 318°
2026-05-06 14:07 51.27825 -88.21733 33913 ft 457 kts 318°
2026-05-06 14:07 51.32595 -88.28444 33937 ft 457 kts 318°
2026-05-06 14:08 51.37376 -88.35168 33918 ft 458 kts 318°
2026-05-06 14:08 51.42146 -88.41913 33915 ft 458 kts 318°
2026-05-06 14:09 51.46910 -88.48690 33926 ft 458 kts 318°
2026-05-06 14:09 51.51675 -88.55464 33922 ft 458 kts 318°
2026-05-06 14:10 51.56438 -88.62261 33918 ft 458 kts 318°
2026-05-06 14:10 51.61205 -88.69092 33934 ft 458 kts 318°
2026-05-06 14:11 51.65963 -88.75919 33928 ft 458 kts 318°
2026-05-06 14:11 51.70711 -88.82768 33930 ft 458 kts 318°
2026-05-06 14:12 51.75466 -88.89631 33936 ft 459 kts 318°
2026-05-06 14:12 51.80217 -88.96505 33938 ft 459 kts 318°
2026-05-06 14:13 51.84968 -89.03398 33943 ft 459 kts 318°
2026-05-06 14:13 51.89715 -89.10313 33939 ft 459 kts 318°
2026-05-06 14:14 51.94489 -89.17286 33941 ft 459 kts 318°
2026-05-06 14:14 51.99221 -89.24244 33951 ft 459 kts 317°
2026-05-06 14:15 52.03958 -89.31213 33946 ft 460 kts 318°
2026-05-06 14:15 52.08690 -89.38191 33960 ft 459 kts 318°
2026-05-06 14:16 52.13417 -89.45174 33956 ft 459 kts 318°
2026-05-06 14:16 52.18135 -89.52162 33952 ft 458 kts 317°
2026-05-06 14:17 52.22840 -89.59178 33952 ft 458 kts 317°
2026-05-06 14:17 52.27540 -89.66198 33955 ft 458 kts 317°
2026-05-06 14:18 52.32238 -89.73228 33962 ft 458 kts 317°
2026-05-06 14:18 52.36939 -89.80263 33964 ft 458 kts 317°
2026-05-06 14:19 52.41630 -89.87317 33967 ft 458 kts 317°
2026-05-06 14:19 52.46311 -89.94394 33965 ft 458 kts 317°
2026-05-06 14:20 52.50988 -90.01480 33967 ft 458 kts 317°
2026-05-06 14:20 52.55726 -90.08480 33966 ft 458 kts 318°
2026-05-06 14:21 52.60517 -90.15493 33966 ft 458 kts 318°
2026-05-06 14:21 52.65259 -90.22498 33969 ft 458 kts 318°
2026-05-06 14:22 52.69982 -90.29536 33963 ft 458 kts 318°
2026-05-06 14:22 52.74708 -90.36592 33965 ft 458 kts 318°
2026-05-06 14:23 52.79439 -90.43652 33977 ft 458 kts 318°
2026-05-06 14:23 52.84165 -90.50725 33977 ft 458 kts 317°
2026-05-06 14:24 52.88879 -90.57819 33973 ft 458 kts 317°
2026-05-06 14:24 52.93586 -90.64935 33980 ft 458 kts 317°
2026-05-06 14:25 52.98295 -90.72056 33977 ft 458 kts 317°
2026-05-06 14:25 53.02992 -90.79204 33974 ft 458 kts 317°
2026-05-06 14:26 53.07688 -90.86357 33977 ft 458 kts 317°
2026-05-06 14:26 53.12388 -90.93528 33977 ft 458 kts 317°
2026-05-06 14:27 53.17078 -91.00725 33982 ft 458 kts 317°
2026-05-06 14:27 53.21766 -91.07933 33990 ft 458 kts 317°
2026-05-06 14:28 53.25694 -91.13979 33993 ft 458 kts 317°
2026-05-06 14:28 53.30373 -91.21206 33993 ft 458 kts 317°
2026-05-06 14:29 53.35050 -91.28459 33993 ft 458 kts 317°
2026-05-06 14:29 53.39720 -91.35724 33994 ft 458 kts 317°
2026-05-06 14:30 53.44386 -91.43015 33972 ft 458 kts 317°
2026-05-06 14:30 53.49043 -91.50318 33968 ft 458 kts 317°
2026-05-06 14:31 53.53703 -91.57634 33967 ft 458 kts 317°
2026-05-06 14:31 53.58357 -91.64960 33973 ft 458 kts 317°
2026-05-06 14:32 53.63033 -91.72350 33979 ft 458 kts 317°
2026-05-06 14:32 53.67672 -91.79705 33988 ft 458 kts 317°
2026-05-06 14:33 53.72308 -91.87072 34002 ft 458 kts 317°
2026-05-06 14:33 53.76936 -91.94450 34019 ft 458 kts 317°
2026-05-06 14:34 53.81566 -92.01857 34017 ft 458 kts 316°
2026-05-06 14:34 53.86181 -92.09288 34016 ft 458 kts 316°
2026-05-06 14:35 53.90788 -92.16722 34025 ft 457 kts 317°
2026-05-06 14:35 53.95387 -92.24159 34031 ft 456 kts 317°
2026-05-06 14:36 53.99979 -92.31590 34035 ft 456 kts 317°
2026-05-06 14:36 54.04563 -92.39035 34033 ft 456 kts 316°
2026-05-06 14:37 54.09140 -92.46520 34032 ft 456 kts 316°
2026-05-06 14:37 54.13709 -92.54010 34039 ft 456 kts 317°
2026-05-06 14:38 54.18311 -92.61556 34036 ft 456 kts 316°
2026-05-06 14:38 54.22872 -92.69064 34039 ft 455 kts 317°
2026-05-06 14:39 54.27419 -92.76578 34044 ft 454 kts 317°
2026-05-06 14:39 54.31960 -92.84116 34051 ft 454 kts 316°
2026-05-06 14:40 54.36490 -92.91649 34046 ft 454 kts 317°
2026-05-06 14:40 54.41008 -92.99200 34049 ft 453 kts 316°
2026-05-06 14:41 54.45516 -93.06769 34045 ft 454 kts 316°
2026-05-06 14:41 54.50031 -93.14349 34044 ft 453 kts 316°
2026-05-06 14:42 54.54542 -93.21935 34046 ft 453 kts 316°
2026-05-06 14:42 54.59044 -93.29558 34046 ft 453 kts 317°
2026-05-06 14:43 54.63534 -93.37186 34049 ft 453 kts 316°
2026-05-06 14:43 54.68052 -93.44883 34048 ft 453 kts 316°
2026-05-06 14:44 54.72539 -93.52538 34065 ft 453 kts 316°
2026-05-06 14:45 54.79264 -93.64035 34070 ft 453 kts 316°
2026-05-06 14:45 54.83734 -93.71742 34068 ft 453 kts 316°
2026-05-06 14:46 54.88195 -93.79469 34070 ft 453 kts 316°
2026-05-06 14:46 54.92656 -93.87207 34053 ft 453 kts 316°
2026-05-06 14:47 54.97123 -93.94957 34073 ft 453 kts 316°
2026-05-06 14:47 55.01570 -94.02735 34072 ft 453 kts 316°
2026-05-06 14:48 55.06000 -94.10569 34076 ft 453 kts 316°
2026-05-06 14:48 55.10416 -94.18430 34085 ft 454 kts 315°
2026-05-06 14:49 55.14832 -94.26309 34081 ft 454 kts 315°
2026-05-06 14:49 55.19243 -94.34198 34085 ft 454 kts 315°
2026-05-06 14:50 55.23654 -94.42111 34074 ft 454 kts 315°
2026-05-06 14:50 55.28059 -94.50031 34079 ft 454 kts 315°
2026-05-06 14:51 55.32488 -94.58024 34089 ft 454 kts 315°
2026-05-06 14:51 55.36878 -94.65985 34094 ft 454 kts 315°
2026-05-06 14:52 55.41268 -94.73956 34089 ft 454 kts 315°
2026-05-06 14:52 55.45646 -94.81971 34093 ft 454 kts 315°
2026-05-06 14:53 55.50019 -94.89986 34095 ft 454 kts 315°
2026-05-06 14:53 55.54387 -94.98011 34097 ft 453 kts 315°
2026-05-06 14:54 55.58754 -95.06056 34099 ft 453 kts 315°
2026-05-06 14:54 55.63121 -95.14105 34098 ft 453 kts 315°
2026-05-06 14:55 55.67471 -95.22190 34106 ft 453 kts 315°
2026-05-06 14:55 55.71816 -95.30292 34103 ft 453 kts 315°
2026-05-06 14:56 55.76166 -95.38409 34106 ft 453 kts 315°
2026-05-06 14:56 55.80503 -95.46542 34103 ft 453 kts 314°
2026-05-06 14:57 55.84831 -95.54692 34102 ft 453 kts 314°
2026-05-06 14:57 55.89157 -95.62866 34103 ft 453 kts 314°
2026-05-06 14:58 55.93504 -95.71110 34098 ft 453 kts 314°
2026-05-06 14:58 55.97821 -95.79323 34097 ft 454 kts 314°
2026-05-06 14:59 56.02133 -95.87558 34101 ft 454 kts 314°
2026-05-06 14:59 56.06439 -95.95802 34106 ft 454 kts 314°
2026-05-06 15:00 56.10743 -96.04069 34107 ft 454 kts 314°
2026-05-06 15:00 56.15041 -96.12347 34111 ft 454 kts 314°
2026-05-06 15:01 56.19331 -96.20650 34116 ft 454 kts 314°
2026-05-06 15:01 56.22893 -96.27568 34117 ft 454 kts 314°
2026-05-06 15:02 56.27169 -96.35897 34109 ft 453 kts 314°
2026-05-06 15:02 56.31441 -96.44253 34118 ft 453 kts 314°
2026-05-06 15:03 56.35700 -96.52622 34121 ft 453 kts 314°
2026-05-06 15:03 56.39981 -96.61063 34118 ft 453 kts 314°
2026-05-06 15:04 56.44230 -96.69448 34120 ft 453 kts 314°
2026-05-06 15:04 56.48476 -96.77867 34122 ft 453 kts 314°
2026-05-06 15:05 56.52711 -96.86314 34122 ft 453 kts 313°
2026-05-06 15:05 56.56944 -96.94761 34126 ft 453 kts 314°
2026-05-06 15:06 56.61174 -97.03213 34130 ft 452 kts 314°
2026-05-06 15:06 56.65384 -97.11681 34130 ft 452 kts 313°
2026-05-06 15:07 56.69579 -97.20182 34132 ft 451 kts 313°
2026-05-06 15:07 56.73774 -97.28679 34135 ft 451 kts 313°
2026-05-06 15:08 56.77967 -97.37190 34134 ft 451 kts 313°
2026-05-06 15:08 56.82147 -97.45723 34134 ft 451 kts 313°
2026-05-06 15:09 56.86317 -97.54278 34141 ft 451 kts 313°
2026-05-06 15:09 56.90483 -97.62846 34139 ft 451 kts 313°
2026-05-06 15:10 56.94643 -97.71432 34134 ft 450 kts 313°
2026-05-06 15:10 56.98818 -97.80077 34147 ft 450 kts 313°
2026-05-06 15:11 57.02953 -97.88679 34149 ft 449 kts 313°
2026-05-06 15:11 57.07081 -97.97291 34148 ft 449 kts 313°
2026-05-06 15:12 57.11201 -98.05906 34148 ft 449 kts 313°
2026-05-06 15:12 57.15314 -98.14550 34152 ft 449 kts 313°
2026-05-06 15:13 57.19414 -98.23213 34145 ft 449 kts 313°
2026-05-06 15:13 57.23513 -98.31894 34145 ft 448 kts 313°
2026-05-06 15:14 57.27607 -98.40584 34142 ft 448 kts 313°
2026-05-06 15:14 57.31683 -98.49278 34153 ft 447 kts 313°
2026-05-06 15:15 57.35745 -98.57976 34157 ft 447 kts 313°
2026-05-06 15:15 57.39800 -98.66702 34157 ft 447 kts 313°
2026-05-06 15:16 57.43853 -98.75431 34155 ft 446 kts 313°
2026-05-06 15:16 57.47899 -98.84175 34150 ft 446 kts 313°
2026-05-06 15:17 57.51932 -98.92954 34155 ft 446 kts 313°
2026-05-06 15:17 57.55965 -99.01750 34157 ft 447 kts 313°
2026-05-06 15:18 57.60017 -99.10618 34142 ft 446 kts 313°
2026-05-06 15:18 57.64028 -99.19434 34155 ft 445 kts 313°
2026-05-06 15:19 57.68022 -99.28244 34170 ft 444 kts 313°
2026-05-06 15:19 57.72014 -99.37063 34172 ft 444 kts 313°
2026-05-06 15:20 57.75993 -99.45905 34168 ft 444 kts 313°
2026-05-06 15:20 57.79960 -99.54756 34174 ft 443 kts 313°
2026-05-06 15:21 57.83922 -99.63619 34166 ft 443 kts 312°
2026-05-06 15:21 57.87875 -99.72509 34165 ft 444 kts 312°